Weather History for Monroe, NC

Change the Weather History Date:

Monday, May 5, 2014

  Actual Average (KCLT) Record (KCLT)
Temperature  
Mean Temperature 74 °F 64 °F  
Max Temperature 90 °F 76 °F 91 °F (1955)
Min Temperature 59 °F 52 °F 36 °F (1940)
Degree Days  
Heating Degree Days 0 3  
Month to date heating degree days 16  
Since 1 July heating degree days 3348  
Cooling Degree Days 9 2  
Month to date cooling degree days 10  
Year to date cooling degree days 47  
Growing Degree Days 24 (Base 50)    
Moisture  
Dew Point 51 °F    
Average Humidity 49    
Maximum Humidity 72    
Minimum Humidity 23    
Precipitation  
Precipitation 0.00 in 0.10 in 2.40 in (2009)
Month to date precipitation 0.49  
Year to date precipitation 14.27  
Snow  
Snow 0.00 in 0.00 in T in (2009)
Month to date snowfall 0.0  
Since 1 July snowfall 4.3  
Snow Depth -    
Sea Level Pressure  
Sea Level Pressure 29.91 in    
Wind  
Wind Speed 6 mph (SW)    
Max Wind Speed 12 mph    
Max Gust Speed -    
Visibility 10 miles    
Events      
T = Trace of Precipitation, MM = Missing Value Source: NWS Daily Summary

Daily Weather History Graph

Daily Weather History Graph

Search for Another Location

Airport:

Trip Planner

Search our weather history database for the weather conditions in past years. The results will help you decide how hot, cold, wet, or windy it might be!

Date:

Astronomy

May. 05, 2014 Rise Set
Actual Time 6:27 AM EDT 8:11 PM EDT
Civil Twilight 6:00 AM EDT 8:38 PM EDT
Nautical Twilight 5:27 AM EDT 9:11 PM EDT
Astronomical Twilight 4:52 AM EDT 9:46 PM EDT
Moon 11:45 AM EDT (5/5) 12:54 AM EDT (5/5)
Length of Visible Light 14h 38m
Length of Day
13h 43m
Waxing Crescent, 36% of the Moon is Illuminated
May 5
Waxing Crescent
May 6
First Quarter
May 14
Full
May 21
Last Quarter
May 28
New

Hourly Weather History & Observations

Time (EDT) Temp. Heat Index Dew Point Humidity Pressure Visibility Wind Dir Wind Speed Gust Speed Precip Events Conditions
12:53 AM 64.9 °F - 51.1 °F 61% 29.94 in 10.0 mi WSW 5.8 mph - N/A   Clear
1:53 AM 63.0 °F - 51.1 °F 65% 29.94 in 10.0 mi SW 5.8 mph - N/A   Clear
2:53 AM 61.0 °F - 51.1 °F 70% 29.93 in 10.0 mi WSW 4.6 mph - N/A   Clear
3:53 AM 62.1 °F - 51.1 °F 67% 29.94 in 10.0 mi SW 4.6 mph - N/A   Clear
4:53 AM 59.0 °F - 50.0 °F 72% 29.95 in 10.0 mi SW 5.8 mph - N/A   Clear
5:53 AM 59.0 °F - 50.0 °F 72% 29.95 in 10.0 mi WSW 5.8 mph - N/A   Clear
6:53 AM 59.0 °F - 50.0 °F 72% 29.98 in 10.0 mi SW 4.6 mph - N/A   Clear
7:53 AM 63.0 °F - 54.0 °F 72% 30.00 in 10.0 mi Calm Calm - N/A   Clear
8:53 AM 72.0 °F - 50.0 °F 46% 30.00 in 10.0 mi North 5.8 mph - N/A   Clear
9:53 AM 75.0 °F - 51.1 °F 43% 29.99 in 10.0 mi NE 5.8 mph - N/A   Clear
10:53 AM 78.1 °F - 54.0 °F 43% 29.99 in 10.0 mi Variable 4.6 mph - N/A   Clear
12:53 PM 82.9 °F 81.9 °F 54.0 °F 37% 29.95 in 10.0 mi West 6.9 mph - N/A   Clear
2:53 PM 88.0 °F - 52.0 °F 29% 29.90 in 10.0 mi WSW 6.9 mph - N/A   Clear
3:53 PM 89.1 °F - 52.0 °F 28% 29.87 in 10.0 mi WSW 11.5 mph - N/A   Clear
4:53 PM 89.1 °F - 46.9 °F 23% 29.85 in 10.0 mi WSW 11.5 mph - N/A   Clear
5:53 PM 89.1 °F - 50.0 °F 26% 29.83 in 10.0 mi WSW 11.5 mph - N/A   Clear
6:53 PM 84.9 °F 83.2 °F 53.1 °F 33% 29.83 in 10.0 mi SW 8.1 mph - N/A   Clear
7:53 PM 79.0 °F - 53.1 °F 40% 29.85 in 10.0 mi SSE 3.5 mph - N/A   Clear
8:53 PM 79.0 °F - 51.1 °F 38% 29.83 in 10.0 mi SSW 6.9 mph - N/A   Clear
9:53 PM 77.0 °F - 51.1 °F 40% 29.83 in 10.0 mi SSW 8.1 mph - N/A   Clear
10:53 PM 73.9 °F - 50.0 °F 43% 29.85 in 10.0 mi SW 9.2 mph - N/A   Clear